User: anonymous   Login
Location: Fort Wayne
(41.1310°N, 85.1290°W)
Time: 00:43:57
(UTC-04:00)
Language:

BREEZE-M DEB (TANK) - Orbit

View from above orbital plane
View from above orbital plane
View from above satellite
View from above satellite

Ground track
Ground track

The orbit data is extracted from the following two-line orbital elements,

1 27821U 03024B   16146.34151572  .00006137  00000-0  51333-3 0  9990
2 27821  49.5624 262.1472 4964187  94.4448 321.4905  5.72956492258152
Epoch (UTC): 25 May 2016 08:11:46
Eccentricity: 0.4964187
inclination: 49.5624°
perigee height: 265 km
apogee height: 13363 km
right ascension of ascending node: 262.1472°
argument of perigee: 94.4448°
revolutions per day: 5.72956492
mean anomaly at epoch: 321.4905°
orbit number at epoch: 25815

The dashed part of the orbit path shows where the satellite is in the earth's shadow,  

DLR